View from above orbital plane
|
View from above satellite
|
Ground track
|
The orbit data is extracted from the following two-line orbital elements,
1 14032U 83037A 21016.88083529 .00000641 00000-0 29278-4 0 9997
2 14032 82.5144 232.4048 0018054 47.9470 312.3297 15.18584978 59814
Epoch (UTC): | 16 January 2021 21:08:24 |
Eccentricity: | 0.0018054 |
inclination: | 82.5144° |
perigee height: | 497 km |
apogee height: | 522 km |
right ascension of ascending node: | 232.4048° |
argument of perigee: | 47.9470° |
revolutions per day: | 15.18584978 |
mean anomaly at epoch: | 312.3297° |
orbit number at epoch: | 5981 |
The dashed part of the orbit path shows where the satellite is in the earth's shadow,
|
|